QPF
0.02 0.01 0.00 0.00 0.00 0.00 0.00 0.00 0.00 0.00 0.00 0.00 0.00 0.00 0.00 0.00 0.00 0.00 0.00 0.00 0.00 0.00 0.00 0.00 0.00 0.00 0.00 0.00 0.00 0.00 0.00 0.00 0.00 0.00 0.00 0.00 0.00 0.01 0.01 0.00 0.01 0.01 0.01 0.02 0.01 0.01 0.00
0.05 0.04 0.03 0.01 0.00 0.00 0.00 0.00 0.00 0.00 0.00 0.00 0.00 0.00 0.00 0.00 0.00 0.00 0.00 0.00 0.00 0.00 0.00 0.00 0.00 0.00 0.00 0.00 0.00 0.00 0.00 0.00 0.00 0.00 0.00 0.01 0.01 0.01 0.00 0.00 0.00 0.00 0.00 0.01 0.01 0.01 0.01
0.05 0.05 0.04 0.02 0.00 0.00 0.00 0.00 0.00 0.00 0.00 0.00 0.00 0.00 0.00 0.00 0.00 0.00 0.00 0.00 0.00 0.00 0.00 0.00 0.00 0.00 0.00 0.00 0.00 0.00 0.00 0.00 0.00 0.01 0.03 0.03 0.00 0.00 0.00 0.00 0.00 0.00 0.00 0.00 0.00 0.01 0.01
0.04 0.05 0.05 0.03 0.01 0.00 0.00 0.00 0.00 0.00 0.00 0.00 0.00 0.00 0.00 0.00 0.00 0.00 0.00 0.00 0.00 0.00 0.00 0.00 0.00 0.00 0.00 0.00 0.00 0.00 0.00 0.00 0.00 0.00 0.00 0.00 0.00 0.00 0.00 0.00 0.00 0.00 0.00 0.00 0.00 0.01 0.01
0.02 0.03 0.03 0.04 0.02 0.01 0.00 0.00 0.00 0.00 0.00 0.00 0.00 0.00 0.00 0.00 0.00 0.00 0.00 0.00 0.00 0.00 0.00 0.00 0.00 0.00 0.00 0.00 0.00 0.00 0.00 0.00 0.00 0.00 0.00 0.00 0.00 0.00 0.00 0.00 0.00 0.00 0.00 0.00 0.00 0.00 0.01
0.00 0.01 0.02 0.02 0.02 0.02 0.00 0.00 0.00 0.00 0.00 0.00 0.00 0.00 0.00 0.00 0.00 0.00 0.00 0.00 0.00 0.00 0.00 0.00 0.00 0.00 0.00 0.00 0.00 0.00 0.00 0.00 0.00 0.00 0.00 0.00 0.00 0.00 0.00 0.00 0.00 0.00 0.00 0.00 0.00 0.00 0.00
0.00 0.00 0.01 0.02 0.01 0.01 0.00 0.00 0.00 0.00 0.00 0.00 0.00 0.00 0.00 0.00 0.00 0.00 0.00 0.00 0.00 0.00 0.00 0.00 0.00 0.00 0.00 0.00 0.00 0.00 0.00 0.00 0.00 0.00 0.00 0.00 0.00 0.00 0.00 0.00 0.00 0.00 0.00 0.00 0.00 0.00 0.00
0.00 0.00 0.00 0.01 0.01 0.00 0.01 0.00 0.00 0.00 0.00 0.00 0.00 0.00 0.00 0.00 0.00 0.00 0.00 0.00 0.00 0.00 0.00 0.00 0.00 0.00 0.00 0.00 0.00 0.00 0.00 0.00 0.00 0.00 0.00 0.00 0.00 0.00 0.00 0.00 0.00 0.00 0.00 0.00 0.00 0.00 0.01
0.00 0.00 0.00 0.00 0.01 0.00 0.00 0.00 0.00 0.00 0.00 0.00 0.00 0.00 0.00 0.00 0.00 0.00 0.00 0.00 0.00 0.00 0.00 0.00 0.00 0.00 0.00 0.00 0.00 0.00 0.00 0.00 0.00 0.00 0.00 0.00 0.00 0.00 0.00 0.00 0.00 0.00 0.00 0.00 0.00 0.02 0.02
0.00 0.00 0.00 0.00 0.00 0.00 0.00 0.00 0.00 0.00 0.00 0.00 0.00 0.00 0.00 0.00 0.00 0.00 0.00 0.00 0.00 0.00 0.00 0.00 0.00 0.00 0.00 0.00 0.00 0.00 0.00 0.00 0.00 0.00 0.00 0.00 0.00 0.00 0.00 0.00 0.00 0.00 0.00 0.00 0.00 0.01 0.00
0.00 0.00 0.00 0.00 0.00 0.00 0.00 0.01 0.00 0.00 0.00 0.00 0.00 0.00 0.00 0.00 0.00 0.00 0.00 0.00 0.00 0.00 0.00 0.00 0.00 0.00 0.00 0.00 0.00 0.00 0.00 0.00 0.00 0.00 0.00 0.00 0.00 0.00 0.00 0.00 0.00 0.00 0.00 0.00 0.00 0.00 0.00
0.00 0.00 0.00 0.00 0.00 0.00 0.00 0.00 0.00 0.00 0.00 0.00 0.00 0.00 0.00 0.00 0.00 0.00 0.00 0.00 0.00 0.00 0.00 0.00 0.00 0.00 0.00 0.00 0.00 0.00 0.00 0.00 0.00 0.00 0.00 0.00 0.00 0.00 0.00 0.00 0.00 0.00 0.01 0.01 0.01 0.00 0.00
0.00 0.00 0.00 0.00 0.00 0.00 0.00 0.01 0.01 0.00 0.00 0.00 0.00 0.00 0.00 0.00 0.00 0.00 0.00 0.00 0.00 0.00 0.00 0.00 0.00 0.00 0.00 0.00 0.00 0.00 0.00 0.00 0.00 0.00 0.00 0.00 0.00 0.00 0.00 0.00 0.00 0.00 0.01 0.01 0.00 0.00 0.00
0.00 0.00 0.00 0.00 0.00 0.00 0.00 0.00 0.00 0.00 0.00 0.00 0.00 0.00 0.00 0.00 0.00 0.00 0.00 0.00 0.00 0.00 0.00 0.00 0.00 0.00 0.00 0.00 0.00 0.00 0.00 0.00 0.00 0.00 0.00 0.00 0.00 0.00 0.00 0.00 0.00 0.00 0.01 0.00 0.00 0.00 0.00
0.00 0.00 0.00 0.00 0.00 0.00 0.00 0.01 0.01 0.00 0.00 0.00 0.00 0.00 0.00 0.00 0.00 0.00 0.00 0.00 0.00 0.00 0.00 0.00 0.00 0.00 0.00 0.00 0.00 0.00 0.00 0.00 0.00 0.00 0.00 0.00 0.00 0.00 0.00 0.00 0.00 0.01 0.01 0.00 0.00 0.00 0.00
0.00 0.00 0.00 0.00 0.00 0.00 0.00 0.01 0.01 0.00 0.00 0.00 0.00 0.00 0.00 0.00 0.00 0.00 0.00 0.00 0.00 0.00 0.00 0.00 0.00 0.00 0.00 0.00 0.00 0.00 0.00 0.00 0.00 0.00 0.00 0.00 0.00 0.00 0.00 0.01 0.01 0.00 0.00 0.00 0.00 0.00 0.00
0.00 0.00 0.00 0.00 0.00 0.01 0.01 0.00 0.01 0.00 0.00 0.00 0.00 0.00 0.00 0.00 0.00 0.00 0.00 0.00 0.00 0.00 0.00 0.00 0.00 0.00 0.00 0.00 0.00 0.00 0.00 0.00 0.00 0.00 0.00 0.01 0.03 0.00 0.02 0.01 0.00 0.00 0.00 0.00 0.00 0.00 0.00
0.01 0.00 0.01 0.01 0.01 0.01 0.01 0.00 0.00 0.00 0.00 0.00 0.00 0.00 0.00 0.00 0.00 0.00 0.00 0.00 0.00 0.00 0.00 0.00 0.00 0.00 0.00 0.00 0.00 0.00 0.00 0.00 0.00 0.00 0.01 0.04 0.02 0.02 0.00 0.01 0.01 0.02 0.01 0.00 0.00 0.00 0.00
0.01 0.02 0.01 0.02 0.01 0.01 0.00 0.00 0.00 0.00 0.00 0.00 0.00 0.00 0.00 0.00 0.00 0.00 0.00 0.00 0.00 0.00 0.00 0.00 0.00 0.00 0.00 0.00 0.00 0.00 0.00 0.00 0.00 0.00 0.02 0.02 0.01 0.01 0.00 0.01 0.00 0.01 0.00 0.00 0.00 0.00 0.00
0.02 0.02 0.02 0.01 0.01 0.01 0.00 0.00 0.00 0.00 0.00 0.00 0.00 0.00 0.00 0.00 0.00 0.00 0.00 0.00 0.00 0.00 0.00 0.00 0.00 0.00 0.00 0.00 0.00 0.00 0.00 0.00 0.00 0.00 0.01 0.02 0.00 0.00 0.00 0.00 0.00 0.00 0.00 0.00 0.00 0.00 0.00
0.01 0.01 0.01 0.01 0.01 0.01 0.01 0.00 0.00 0.00 0.00 0.00 0.00 0.00 0.00 0.00 0.00 0.00 0.00 0.00 0.00 0.00 0.00 0.00 0.00 0.00 0.00 0.00 0.00 0.00 0.00 0.00 0.00 0.00 0.00 0.01 0.00 0.00 0.00 0.00 0.00 0.00 0.00 0.00 0.00 0.00 0.00
0.02 0.03 0.03 0.03 0.02 0.01 0.01 0.00 0.00 0.00 0.00 0.00 0.00 0.00 0.00 0.00 0.00 0.00 0.00 0.00 0.00 0.00 0.00 0.00 0.00 0.00 0.00 0.00 0.00 0.00 0.00 0.00 0.00 0.00 0.00 0.00 0.00 0.00 0.00 0.00 0.00 0.00 0.00 0.00 0.00 0.00 0.00
0.02 0.03 0.03 0.03 0.02 0.01 0.01 0.00 0.00 0.00 0.00 0.00 0.00 0.00 0.00 0.00 0.00 0.00 0.00 0.00 0.00 0.00 0.00 0.00 0.00 0.00 0.00 0.00 0.00 0.00 0.00 0.00 0.00 0.00 0.00 0.00 0.00 0.00 0.00 0.00 0.00 0.00 0.00 0.00 0.00 0.00 0.00
0.02 0.02 0.01 0.01 0.01 0.00 0.00 0.00 0.00 0.00 0.00 0.00 0.00 0.00 0.00 0.00 0.00 0.00 0.00 0.00 0.00 0.00 0.00 0.00 0.00 0.00 0.00 0.00 0.00 0.00 0.00 0.00 0.00 0.00 0.00 0.00 0.00 0.00 0.00 0.00 0.00 0.00 0.00 0.00 0.00 0.00 0.00
0.01 0.01 0.00 0.00 0.01 0.00 0.00 0.00 0.00 0.00 0.00 0.00 0.00 0.00 0.00 0.00 0.00 0.00 0.00 0.00 0.00 0.00 0.00 0.00 0.00 0.00 0.00 0.00 0.00 0.00 0.00 0.00 0.00 0.00 0.00 0.00 0.00 0.00 0.00 0.00 0.00 0.00 0.00 0.00 0.00 0.00 0.00
0.00 0.00 0.00 0.01 0.00 0.00 0.00 0.00 0.00 0.00 0.00 0.00 0.00 0.00 0.00 0.00 0.00 0.00 0.00 0.00 0.00 0.00 0.00 0.00 0.00 0.00 0.00 0.00 0.00 0.00 0.00 0.00 0.00 0.00 0.00 0.00 0.00 0.00 0.00 0.00 0.00 0.00 0.00 0.00 0.00 0.00 0.00
0.00 0.00 0.00 0.00 0.00 0.00 0.00 0.00 0.00 0.00 0.00 0.00 0.00 0.00 0.00 0.00 0.00 0.00 0.00 0.00 0.00 0.00 0.00 0.00 0.00 0.00 0.00 0.00 0.00 0.00 0.00 0.00 0.00 0.00 0.00 0.00 0.00 0.00 0.00 0.00 0.00 0.00 0.00 0.00 0.00 0.00 0.00
0.00 0.00 0.00 0.00 0.00 0.01 0.00 0.00 0.00 0.00 0.00 0.00 0.00 0.00 0.00 0.00 0.00 0.00 0.00 0.00 0.00 0.00 0.00 0.00 0.00 0.00 0.00 0.00 0.00 0.00 0.00 0.00 0.00 0.00 0.00 0.00 0.00 0.00 0.00 0.00 0.00 0.00 0.00 0.00 0.00 0.00 0.00
0.00 0.00 0.00 0.00 0.00 0.01 0.00 0.00 0.00 0.00 0.00 0.00 0.00 0.00 0.00 0.00 0.00 0.00 0.00 0.00 0.00 0.00 0.00 0.00 0.00 0.00 0.00 0.00 0.00 0.00 0.00 0.00 0.00 0.00 0.00 0.00 0.00 0.00 0.00 0.00 0.00 0.00 0.00 0.00 0.00 0.00 0.00
MSLP
1021.09 1020.96 1020.79 1020.72 1020.74 1020.71 1020.35 1020.14 1020.17 1019.95 1019.75 1019.57 1019.41 1019.27 1019.22 1019.11 1018.81 1018.44 1018.21 1017.87 1017.53 1017.25 1016.94 1016.71 1016.33 1015.85 1015.66 1015.72 1015.18 1014.17 1013.76 1013.78 1013.58 1013.38 1013.68 1013.69 1013.66 1013.26 1013.42 1013.04 1014.05 1013.19 1012.73 1012.83 1012.99 1011.87 1011.81
1020.69 1020.34 1020.14 1020.14 1020.04 1020.15 1020.21 1019.84 1019.76 1019.75 1019.50 1019.29 1019.07 1019.06 1019.01 1018.84 1018.68 1018.31 1018.03 1017.73 1017.47 1017.21 1016.82 1016.61 1016.26 1015.85 1016.03 1015.72 1014.61 1014.21 1013.81 1013.77 1013.91 1013.90 1014.07 1014.02 1013.82 1013.99 1013.75 1013.82 1013.69 1013.84 1013.88 1013.63 1013.56 1013.31 1012.97
1020.35 1019.98 1019.66 1019.35 1019.44 1019.35 1019.64 1019.68 1019.52 1019.28 1019.21 1019.08 1018.75 1018.82 1018.80 1018.64 1018.46 1018.16 1017.87 1017.56 1017.33 1017.09 1016.69 1016.49 1016.15 1016.10 1016.20 1015.64 1014.59 1014.26 1013.76 1013.62 1013.60 1013.42 1013.53 1013.72 1013.93 1013.97 1013.05 1012.88 1013.16 1014.46 1014.27 1014.26 1014.53 1014.39 1014.19
1020.69 1020.10 1019.51 1018.98 1018.73 1018.73 1018.86 1019.18 1019.19 1019.08 1018.88 1018.81 1018.60 1018.45 1018.50 1018.47 1018.31 1017.99 1017.76 1017.39 1017.08 1016.85 1016.47 1016.26 1015.99 1016.13 1016.06 1015.03 1014.56 1014.28 1013.79 1013.67 1013.60 1013.39 1013.40 1013.72 1014.31 1014.40 1013.83 1013.23 1013.36 1013.93 1015.28 1015.92 1015.76 1015.22 1015.16
1020.82 1020.16 1019.54 1018.98 1018.12 1018.01 1018.24 1018.42 1018.82 1018.65 1018.63 1018.43 1018.44 1018.15 1018.15 1018.22 1018.05 1017.90 1017.61 1017.20 1016.72 1016.52 1016.22 1015.94 1015.97 1016.06 1015.92 1014.98 1014.81 1014.48 1014.36 1014.14 1013.88 1013.75 1013.89 1013.82 1013.94 1013.95 1013.56 1014.06 1014.67 1015.30 1015.87 1015.72 1015.79 1015.49 1014.95
1020.63 1020.17 1019.55 1018.98 1018.26 1017.40 1017.49 1017.83 1018.09 1018.30 1018.24 1018.08 1018.20 1017.99 1017.83 1017.96 1017.85 1017.71 1017.36 1017.06 1016.38 1016.34 1015.91 1015.94 1015.81 1016.22 1015.72 1015.86 1015.34 1014.62 1014.27 1014.19 1014.27 1014.21 1014.31 1014.18 1014.22 1014.19 1014.31 1014.27 1014.59 1014.94 1015.55 1015.74 1015.83 1016.11 1015.95
1020.39 1020.00 1019.49 1018.84 1018.35 1017.60 1016.67 1017.05 1017.43 1017.69 1017.82 1017.81 1017.92 1017.85 1017.57 1017.58 1017.64 1017.56 1017.34 1017.19 1017.18 1016.94 1016.29 1016.34 1016.31 1016.13 1016.15 1015.65 1015.01 1014.97 1014.44 1014.25 1014.35 1014.79 1015.43 1015.19 1015.07 1015.04 1014.79 1014.62 1014.33 1014.34 1014.86 1015.13 1015.25 1015.86 1015.74
1020.03 1019.56 1019.13 1018.70 1018.15 1017.67 1017.01 1016.07 1016.67 1017.08 1017.31 1017.35 1017.54 1017.67 1017.38 1017.22 1017.47 1017.47 1017.51 1017.46 1017.16 1017.27 1016.91 1016.37 1016.20 1016.10 1015.91 1015.84 1015.60 1014.94 1014.77 1014.97 1015.14 1015.93 1016.05 1016.20 1015.93 1015.52 1014.78 1014.23 1014.32 1014.38 1014.36 1014.47 1014.65 1014.57 1014.91
1019.47 1019.13 1018.53 1018.26 1017.90 1017.35 1016.69 1015.80 1015.69 1016.42 1016.70 1016.93 1017.13 1017.37 1017.17 1016.97 1017.31 1017.46 1017.29 1017.22 1017.01 1017.07 1017.08 1016.51 1016.14 1015.95 1015.80 1015.92 1015.83 1015.53 1015.29 1015.25 1015.83 1016.31 1016.48 1016.52 1016.24 1015.45 1014.90 1014.33 1013.94 1013.76 1013.69 1013.79 1013.94 1013.92 1015.03
1018.87 1018.61 1018.29 1017.70 1017.46 1017.01 1016.56 1016.05 1014.76 1015.64 1015.98 1016.34 1016.67 1016.97 1016.94 1016.79 1017.57 1017.11 1017.06 1016.99 1017.06 1017.23 1017.62 1016.94 1016.07 1015.73 1015.79 1015.71 1015.79 1015.50 1015.39 1015.72 1015.72 1016.16 1016.39 1016.35 1015.83 1015.35 1015.06 1014.49 1014.01 1013.80 1013.41 1013.51 1014.14 1014.41 1015.42
1018.25 1018.10 1017.74 1017.30 1017.01 1016.65 1016.00 1015.95 1014.43 1014.74 1015.72 1016.03 1016.24 1016.56 1016.66 1016.55 1017.15 1017.03 1016.97 1016.88 1017.12 1017.47 1017.85 1016.86 1015.92 1015.46 1015.50 1015.80 1015.72 1015.48 1015.21 1015.31 1015.78 1015.99 1016.44 1016.43 1016.04 1015.66 1015.10 1014.46 1013.94 1013.70 1013.57 1013.71 1014.39 1015.20 1015.55
1017.44 1017.20 1017.10 1016.86 1016.43 1016.25 1015.66 1015.12 1014.24 1014.08 1014.96 1015.75 1015.99 1016.15 1016.33 1016.62 1017.02 1016.73 1016.79 1017.01 1017.61 1018.45 1017.67 1016.63 1015.86 1015.64 1015.77 1015.67 1015.73 1015.51 1015.41 1015.31 1015.61 1016.01 1016.30 1016.47 1016.11 1015.76 1015.15 1014.55 1014.06 1013.84 1014.20 1014.79 1015.69 1016.43 1016.68
1016.84 1016.41 1016.35 1016.03 1015.69 1015.62 1015.29 1014.86 1013.91 1013.45 1014.56 1015.40 1015.81 1015.83 1015.92 1016.02 1016.32 1016.54 1016.85 1017.67 1018.57 1018.14 1017.77 1016.72 1015.90 1015.61 1015.54 1015.70 1015.77 1015.81 1015.78 1015.84 1016.06 1016.67 1016.75 1017.03 1016.29 1015.67 1015.20 1014.92 1014.47 1014.53 1015.51 1016.50 1017.35 1017.32 1016.67
1016.05 1015.67 1015.51 1015.31 1015.16 1015.11 1014.72 1014.40 1013.51 1012.91 1013.74 1015.34 1015.61 1015.73 1015.48 1015.78 1015.95 1016.47 1017.10 1018.28 1018.25 1016.96 1016.81 1015.90 1015.57 1015.46 1015.59 1015.45 1015.61 1015.88 1016.07 1016.11 1016.11 1016.45 1017.23 1017.33 1016.64 1015.62 1014.80 1014.62 1014.51 1014.95 1015.55 1016.15 1016.73 1017.21 1016.86
1015.11 1014.93 1014.69 1014.54 1014.50 1014.37 1014.11 1013.79 1013.93 1012.86 1013.57 1014.88 1015.48 1015.85 1015.47 1015.85 1016.02 1016.59 1017.32 1017.87 1016.04 1015.71 1015.37 1015.35 1015.48 1015.49 1015.50 1015.28 1015.45 1015.91 1016.11 1015.94 1015.44 1015.62 1016.47 1016.63 1016.15 1015.01 1014.69 1014.37 1014.52 1015.02 1015.42 1015.76 1016.60 1017.35 1017.09
1014.04 1013.76 1013.62 1013.53 1013.61 1013.51 1013.36 1012.84 1013.18 1013.01 1013.45 1014.35 1015.07 1015.61 1015.41 1015.60 1015.95 1016.69 1017.27 1016.37 1015.14 1014.43 1014.34 1014.49 1014.89 1014.99 1015.22 1015.26 1015.58 1015.81 1015.68 1014.97 1014.90 1014.82 1014.92 1015.73 1015.90 1015.14 1014.67 1014.60 1014.70 1014.63 1014.92 1016.12 1016.88 1017.23 1016.98
1012.91 1012.76 1012.60 1012.52 1012.47 1012.55 1012.19 1011.93 1012.24 1012.51 1012.51 1013.97 1014.58 1015.10 1015.57 1015.52 1015.94 1016.82 1016.89 1015.67 1014.42 1013.78 1013.70 1014.18 1014.40 1014.75 1014.97 1015.09 1015.24 1015.57 1015.35 1014.74 1014.38 1014.60 1014.91 1015.47 1016.11 1015.85 1015.31 1014.74 1014.49 1015.00 1015.04 1015.59 1015.98 1016.60 1016.57
1011.65 1011.63 1011.42 1011.39 1011.52 1011.44 1011.15 1010.93 1011.46 1011.26 1012.23 1013.65 1013.92 1014.96 1015.48 1015.63 1016.25 1016.37 1015.87 1014.68 1013.68 1013.57 1013.66 1013.94 1014.17 1014.50 1014.77 1014.89 1015.14 1015.41 1015.35 1015.13 1014.72 1014.76 1015.19 1015.52 1016.01 1015.56 1014.96 1014.76 1014.73 1014.52 1014.59 1015.00 1015.69 1016.51 1016.52
1010.43 1010.38 1010.50 1010.60 1010.41 1010.31 1010.03 1009.89 1010.33 1010.69 1011.15 1012.16 1013.73 1014.96 1015.63 1015.71 1015.83 1015.67 1014.72 1014.03 1013.58 1013.53 1013.69 1014.03 1014.26 1014.36 1014.64 1014.89 1015.27 1015.40 1015.45 1015.78 1015.48 1015.58 1015.76 1015.99 1016.27 1015.74 1015.57 1015.71 1015.20 1014.86 1014.64 1014.71 1015.29 1015.93 1015.98
1009.24 1009.51 1009.65 1009.56 1009.24 1008.99 1008.67 1008.40 1008.70 1009.94 1010.43 1010.60 1013.01 1014.61 1015.72 1015.92 1015.36 1015.10 1014.29 1013.89 1013.52 1013.23 1013.54 1013.84 1014.10 1014.29 1014.83 1015.13 1015.37 1015.67 1015.95 1016.27 1016.27 1016.38 1016.21 1016.11 1016.76 1016.75 1016.25 1015.99 1015.54 1015.07 1014.27 1014.62 1015.06 1015.86 1015.29
1008.42 1008.77 1008.61 1008.43 1008.26 1007.89 1007.71 1006.95 1007.98 1009.16 1009.49 1010.05 1011.49 1012.23 1012.84 1014.36 1014.68 1014.39 1013.69 1013.38 1013.27 1013.43 1013.69 1013.98 1014.46 1014.73 1015.10 1015.61 1016.00 1016.28 1016.78 1017.08 1017.21 1017.19 1017.17 1017.41 1017.39 1017.29 1016.69 1015.82 1015.48 1014.86 1014.21 1014.32 1014.10 1014.44 1014.41
1007.94 1008.06 1007.78 1006.84 1006.65 1006.45 1005.50 1005.86 1007.03 1007.91 1009.31 1010.18 1010.72 1011.08 1012.10 1012.42 1012.90 1013.94 1013.61 1013.33 1013.12 1013.44 1013.86 1014.35 1014.76 1015.34 1015.63 1016.12 1016.31 1016.92 1017.42 1017.83 1018.10 1018.22 1018.35 1018.51 1018.05 1017.72 1016.40 1015.46 1015.11 1014.56 1013.89 1013.96 1013.93 1013.89 1013.74
1007.09 1007.00 1006.45 1006.01 1005.61 1005.58 1005.28 1005.55 1006.78 1007.76 1008.84 1009.52 1010.10 1009.98 1009.74 1012.21 1013.10 1013.31 1013.14 1013.06 1013.12 1013.32 1014.45 1014.50 1015.09 1015.80 1016.27 1016.46 1016.75 1017.24 1017.72 1018.09 1018.55 1018.89 1018.99 1019.11 1019.16 1018.72 1017.23 1015.78 1015.02 1014.23 1012.89 1012.75 1012.91 1012.87 1012.75
1006.39 1006.27 1006.02 1005.67 1005.21 1004.34 1004.22 1004.60 1005.94 1007.21 1007.80 1008.45 1009.13 1009.63 1009.80 1012.25 1013.10 1012.54 1012.77 1013.04 1013.47 1013.93 1014.71 1015.56 1015.72 1016.18 1016.69 1016.78 1017.16 1017.62 1018.01 1018.26 1018.68 1018.85 1019.05 1019.30 1019.51 1019.06 1017.95 1016.17 1014.70 1012.66 1011.45 1011.28 1011.51 1011.46 1011.48
1006.00 1006.00 1005.74 1005.14 1004.04 1003.92 1004.20 1004.25 1005.64 1006.61 1007.48 1008.61 1009.04 1008.98 1009.63 1012.13 1012.93 1012.77 1013.19 1013.79 1014.37 1014.93 1015.60 1016.13 1016.52 1016.78 1016.86 1017.13 1017.72 1018.21 1018.53 1018.77 1018.82 1019.01 1019.15 1019.38 1019.52 1019.33 1018.27 1016.47 1014.55 1012.34 1011.64 1011.41 1011.43 1011.08 1010.81
1005.17 1005.28 1005.33 1005.28 1004.91 1004.19 1003.49 1004.51 1005.44 1006.63 1007.87 1008.70 1009.46 1008.65 1009.28 1011.49 1013.10 1012.92 1013.71 1014.10 1015.18 1015.98 1016.54 1016.84 1016.91 1016.91 1017.10 1017.83 1018.45 1019.18 1019.24 1018.99 1018.98 1019.30 1019.20 1019.49 1019.37 1019.21 1018.17 1016.75 1014.68 1013.09 1012.07 1011.34 1011.11 1011.22 1010.75
1004.88 1004.61 1004.34 1004.11 1003.93 1003.55 1003.41 1004.16 1005.53 1006.70 1007.79 1008.14 1009.60 1008.84 1009.32 1011.74 1013.60 1013.87 1013.82 1014.36 1015.19 1016.09 1016.99 1017.33 1017.42 1017.54 1017.72 1018.64 1019.36 1019.82 1019.77 1019.21 1019.20 1018.99 1019.16 1019.27 1019.08 1018.85 1018.23 1016.77 1014.99 1014.13 1012.89 1011.87 1012.36 1013.10 1011.45
1004.56 1004.64 1004.36 1004.13 1004.18 1003.99 1003.45 1004.22 1005.33 1006.75 1007.65 1007.88 1010.23 1009.56 1009.62 1012.73 1014.68 1014.78 1014.45 1014.77 1015.33 1015.86 1016.78 1017.54 1018.05 1018.33 1018.66 1019.30 1020.13 1020.43 1020.41 1019.96 1019.57 1018.81 1018.43 1018.29 1018.36 1018.09 1017.62 1016.90 1015.74 1014.52 1013.38 1013.88 1014.44 1012.92 1011.92
1003.95 1004.10 1004.02 1003.95 1003.46 1003.55 1003.38 1004.42 1005.65 1006.82 1007.54 1007.88 1009.87 1010.12 1010.31 1012.56 1015.39 1015.33 1015.65 1015.66 1015.31 1015.35 1016.06 1017.29 1017.79 1018.10 1018.56 1019.55 1020.48 1020.89 1020.86 1020.50 1020.06 1019.26 1018.09 1017.95 1017.53 1017.25 1017.09 1016.03 1015.31 1015.01 1015.05 1014.89 1014.57 1014.01 1013.18
Thickness
5617 5614 5612 5610 5609 5606 5608 5607 5604 5603 5602 5601 5599 5597 5593 5590 5587 5584 5581 5576 5569 5559 5547 5533 5515 5494 5479 5461 5460 5474 5485 5491 5498 5505 5506 5517 5527 5536 5544 5551 5555 5573 5583 5592 5599 5620 5627
5613 5612 5610 5607 5606 5604 5602 5602 5600 5598 5598 5598 5597 5593 5591 5588 5585 5582 5579 5576 5568 5559 5549 5534 5517 5501 5482 5467 5478 5483 5494 5500 5504 5508 5513 5520 5533 5536 5542 5546 5557 5566 5573 5582 5595 5605 5615
5608 5607 5605 5606 5601 5601 5599 5597 5595 5596 5595 5593 5594 5591 5588 5586 5584 5581 5578 5575 5568 5560 5551 5537 5523 5505 5488 5483 5492 5497 5504 5511 5516 5523 5524 5526 5533 5537 5551 5556 5563 5558 5566 5575 5585 5593 5600
5594 5596 5598 5599 5598 5596 5596 5595 5592 5591 5591 5589 5589 5589 5586 5583 5582 5580 5576 5574 5569 5562 5553 5541 5528 5511 5496 5505 5507 5509 5514 5518 5523 5526 5529 5533 5534 5538 5549 5560 5565 5562 5556 5554 5571 5583 5589
5581 5585 5589 5592 5597 5594 5592 5592 5588 5587 5587 5587 5584 5586 5585 5581 5581 5578 5576 5574 5571 5564 5556 5546 5534 5520 5507 5515 5515 5519 5520 5523 5527 5530 5532 5537 5540 5546 5556 5546 5547 5552 5546 5554 5566 5577 5580
5573 5574 5577 5581 5586 5591 5589 5587 5586 5583 5583 5583 5580 5581 5582 5579 5579 5577 5575 5573 5573 5565 5561 5551 5542 5527 5520 5513 5520 5526 5529 5530 5530 5533 5536 5538 5539 5541 5541 5544 5546 5551 5549 5555 5561 5563 5573
5561 5562 5565 5570 5574 5580 5586 5583 5582 5579 5579 5578 5576 5575 5579 5578 5577 5575 5574 5569 5565 5560 5559 5552 5541 5533 5525 5524 5527 5527 5532 5535 5536 5530 5521 5530 5534 5538 5544 5548 5555 5559 5555 5558 5564 5567 5570
5549 5550 5554 5556 5564 5568 5574 5583 5578 5576 5575 5574 5572 5570 5574 5576 5574 5572 5570 5566 5564 5560 5555 5555 5549 5538 5532 5527 5523 5529 5531 5531 5530 5519 5526 5521 5528 5538 5547 5555 5554 5554 5560 5559 5566 5572 5573
5535 5537 5541 5544 5550 5558 5567 5575 5579 5572 5571 5570 5568 5566 5570 5572 5570 5568 5568 5564 5563 5558 5551 5555 5551 5543 5535 5530 5524 5525 5528 5529 5524 5525 5526 5515 5532 5541 5546 5550 5556 5558 5558 5562 5570 5573 5568
5504 5510 5515 5530 5537 5547 5555 5565 5576 5570 5568 5567 5565 5563 5565 5567 5564 5567 5565 5563 5560 5555 5511 5546 5552 5547 5540 5535 5529 5530 5530 5526 5527 5523 5524 5527 5537 5540 5539 5547 5554 5551 5565 5571 5567 5566 5556
5477 5478 5485 5504 5522 5534 5545 5549 5569 5567 5561 5562 5561 5559 5560 5563 5561 5563 5563 5560 5555 5549 5510 5554 5552 5549 5544 5535 5532 5531 5533 5531 5527 5528 5523 5523 5527 5528 5535 5543 5550 5552 5562 5563 5561 5553 5554
5468 5470 5472 5484 5503 5518 5533 5545 5557 5563 5557 5554 5555 5555 5557 5556 5556 5559 5558 5555 5548 5517 5510 5547 5554 5548 5540 5537 5532 5531 5529 5530 5527 5527 5525 5520 5525 5527 5531 5538 5545 5553 5547 5547 5540 5534 5531
5454 5458 5463 5471 5487 5502 5519 5532 5546 5557 5552 5547 5547 5550 5553 5555 5555 5555 5552 5544 5517 5500 5539 5542 5550 5549 5545 5534 5531 5526 5522 5518 5505 5485 5477 5495 5513 5523 5529 5530 5537 5540 5528 5520 5521 5526 5533
5437 5442 5447 5458 5471 5486 5506 5519 5537 5550 5549 5538 5541 5543 5549 5550 5551 5549 5544 5526 5506 5554 5532 5554 5554 5551 5542 5540 5533 5523 5518 5508 5511 5507 5482 5459 5479 5513 5526 5528 5527 5527 5524 5516 5522 5523 5530
5418 5422 5424 5437 5453 5472 5494 5508 5521 5539 5540 5534 5534 5535 5541 5543 5543 5543 5536 5502 5534 5544 5552 5554 5551 5544 5541 5541 5538 5523 5508 5504 5514 5510 5492 5476 5489 5517 5522 5527 5527 5520 5516 5529 5514 5506 5493
5396 5392 5390 5408 5434 5458 5483 5503 5514 5527 5531 5529 5528 5531 5536 5538 5537 5536 5531 5537 5558 5567 5564 5560 5545 5542 5535 5537 5527 5515 5510 5518 5513 5508 5506 5500 5494 5505 5513 5517 5518 5522 5526 5514 5500 5512 5517
5378 5372 5377 5395 5424 5448 5476 5499 5511 5520 5529 5525 5525 5529 5528 5532 5531 5529 5516 5528 5561 5568 5565 5555 5546 5546 5541 5537 5524 5513 5519 5520 5515 5504 5496 5492 5481 5489 5496 5504 5509 5513 5508 5516 5519 5517 5506
5368 5366 5374 5392 5419 5445 5471 5496 5507 5521 5522 5519 5522 5530 5523 5526 5524 5529 5528 5541 5567 5563 5559 5553 5550 5544 5538 5535 5529 5514 5511 5511 5506 5500 5492 5484 5476 5485 5496 5503 5503 5509 5515 5520 5510 5507 5496
5363 5364 5372 5391 5420 5445 5472 5493 5501 5515 5524 5522 5516 5516 5516 5520 5522 5529 5542 5557 5559 5557 5552 5545 5543 5541 5536 5533 5527 5518 5515 5499 5493 5484 5476 5475 5465 5482 5483 5486 5491 5497 5508 5513 5502 5497 5481
5362 5363 5377 5400 5429 5452 5477 5496 5509 5513 5520 5528 5514 5511 5506 5512 5521 5529 5546 5550 5553 5556 5552 5549 5546 5543 5536 5527 5520 5516 5507 5492 5482 5472 5476 5467 5450 5461 5464 5474 5480 5488 5502 5508 5505 5494 5496
5364 5370 5388 5410 5439 5464 5481 5505 5511 5514 5520 5527 5522 5525 5528 5518 5520 5529 5545 5551 5553 5548 5549 5544 5540 5532 5531 5522 5512 5507 5488 5476 5468 5461 5457 5449 5437 5451 5465 5475 5471 5480 5493 5496 5500 5504 5502
5370 5379 5399 5429 5451 5470 5494 5508 5516 5519 5515 5519 5525 5526 5526 5529 5537 5530 5542 5546 5552 5550 5542 5539 5531 5521 5517 5511 5508 5496 5480 5470 5463 5451 5446 5430 5437 5414 5447 5473 5475 5482 5490 5493 5496 5502 5510
5378 5391 5413 5437 5463 5478 5494 5508 5512 5515 5518 5519 5520 5532 5546 5528 5527 5532 5537 5545 5552 5544 5531 5532 5521 5510 5508 5503 5495 5486 5475 5466 5446 5438 5437 5418 5402 5389 5423 5465 5472 5472 5487 5495 5496 5502 5506
5393 5406 5422 5442 5464 5488 5505 5514 5515 5518 5523 5525 5525 5531 5538 5529 5524 5537 5540 5546 5540 5542 5526 5517 5514 5509 5503 5497 5489 5480 5469 5461 5449 5447 5435 5418 5400 5400 5404 5459 5477 5499 5506 5508 5509 5514 5516
5404 5415 5428 5453 5478 5492 5504 5516 5516 5520 5520 5519 5521 5532 5533 5519 5521 5534 5534 5527 5521 5519 5516 5510 5503 5500 5496 5495 5483 5482 5460 5462 5460 5448 5431 5418 5409 5401 5424 5451 5477 5503 5504 5498 5497 5508 5513
5413 5427 5440 5453 5471 5491 5509 5513 5515 5517 5513 5514 5514 5529 5533 5527 5524 5530 5524 5525 5508 5500 5500 5499 5499 5495 5494 5483 5480 5458 5452 5453 5456 5444 5427 5424 5424 5427 5434 5454 5472 5491 5489 5497 5504 5498 5510
5419 5434 5450 5466 5482 5498 5510 5515 5513 5512 5511 5515 5510 5524 5529 5517 5505 5515 5520 5518 5507 5496 5486 5490 5493 5491 5488 5474 5463 5454 5470 5471 5459 5460 5435 5426 5421 5408 5408 5417 5460 5465 5475 5491 5491 5479 5497
5423 5432 5449 5464 5476 5490 5509 5513 5514 5510 5510 5514 5503 5516 5523 5502 5494 5500 5507 5510 5502 5497 5491 5485 5482 5478 5475 5464 5446 5442 5449 5453 5448 5453 5446 5447 5427 5423 5436 5429 5444 5455 5472 5465 5457 5470 5489
5427 5437 5453 5467 5482 5495 5506 5508 5506 5506 5507 5511 5503 5509 5517 5503 5488 5494 5494 5496 5501 5504 5490 5481 5482 5476 5473 5461 5436 5430 5444 5411 5431 5424 5448 5454 5444 5451 5443 5444 5451 5448 5447 5451 5453 5459 5465